Location: Shandelee
(41.8790°N, 74.8713°W)
Time: 04:35:00
(UTC+00:00)

Meteor 2-15 - Pass Details

Date: 29 October 2020
Orbit: 935 x 956 km, 82.5° (Epoch: 23 November)

Event Time Altitude Azimuth Distance (km) Brightness Sun altitude
Rises 22:55:36 0° 174° (S) 3,619 7.5 -11.5°
Reaches altitude 10° 22:58:07 10° 170° (S) 2,677 6.8 -11.9°
Maximum altitude 23:04:06 58° 93° (E) 1,102 4.5 -13.0°
Drops below altitude 10° 23:10:06 10° 16° (NNE) 2,684 6.6 -14.2°
Sets 23:12:38 0° 13° (NNE) 3,631 7.3 -14.6°
